Tracking 25949 objects as of 9-Aug-2022
HD Live streaming from Space Station
objects crossing your sky now

STARLINK-3988

Track STARLINK-3988 now!
10-day predictions
STARLINK-3988 is classified as:


NORAD ID: 52625
Int'l Code: 2022-052AD
Perigee: 550.9 km
Apogee: 552.8 km
Inclination: 53.2 °
Period: 95.5 minutes
Semi major axis: 6922 km
RCS: Unknown
Launch date: May 14, 2022
Source: United States (US)
Launch site: AIR FORCE EASTERN TEST RANGE (AFETR)
aabbcc
Your satellite tracking list
Your tracking list is empty




NASA's NSSDC Master Catalog

Two Line Element Set (TLE):
1 52625U 22052AD  22220.91667824  .00005067  00000-0  35117-3 0  9990
2 52625  53.2159  24.1132 0001336  81.6511 226.5063 15.07213722  1303
Source of the keplerian elements: AFSPC